FW8113 Weather Reports


Display with metric or nautical units.
time (UTC)temp
F
wind
direction
speed
MPH
gust
MPH
rain 1hr
in
rain 24hr
in
rain mn
in
humidity
%
barometer
mb
20260508142148 54 176 4.0 5.0 0.00 0.00 0.00 48 1011.7
20260508141644 53 14 0.0 0.0 0.00 0.00 0.00 48 1011.7
20260508141142 53 151 2.0 3.0 0.00 0.00 0.00 49 1011.7
20260508140640 52 21 3.0 3.0 0.00 0.00 0.00 50 1011.7
20260508140136 52 138 1.0 2.0 0.00 0.00 0.00 50 1011.7
20260508135632 53 195 3.0 3.0 0.00 0.00 0.00 51 1011.7
20260508135128 52 93 0.0 2.0 0.00 0.00 0.00 50 1011.7
20260508134625 52 12 2.0 3.0 0.00 0.00 0.00 51 1011.4
20260508134122 52 78 1.0 2.0 0.00 0.00 0.00 50 1011.7
20260508133618 52 45 5.0 7.0 0.00 0.00 0.00 54 1011.7
20260508133116 50 57 1.0 2.0 0.00 0.00 0.00 57 1011.7
20260508132614 50 217 0.0 0.0 0.00 0.00 0.00 56 1011.7
20260508132110 50 156 1.0 3.0 0.00 0.00 0.00 58 1012.0
20260508131606 49 62 0.0 2.0 0.00 0.00 0.00 59 1012.0
20260508131103 49 334 6.0 9.0 0.00 0.00 0.00 60 1012.0
20260508130559 49 17 2.0 5.0 0.00 0.00 0.00 62 1012.4
20260508130056 48 106 0.0 2.0 0.00 0.00 0.00 62 1012.0
20260508125551 48 29 1.0 2.0 0.00 0.00 0.00 61 1012.4
20260508125049 48 222 5.0 5.0 0.00 0.00 0.00 62 1012.0
20260508124548 48 202 5.0 5.0 0.00 0.00 0.00 63 1012.0
20260508124044 47 57 0.0 0.0 0.00 0.00 0.00 64 1012.0
20260508123542 47 185 2.0 3.0 0.00 0.00 0.00 65 1012.4
20260508123039 47 210 0.0 2.0 0.00 0.00 0.00 66 1012.0
20260508122536 46 187 3.0 3.0 0.00 0.00 0.00 66 1012.4
20260508122033 47 30 2.0 3.0 0.00 0.00 0.00 67 1012.4
20260508121531 47 90 1.0 2.0 0.00 0.00 0.00 68 1012.4
20260508121029 47 217 6.0 10.0 0.00 0.00 0.00 67 1012.4
20260508120525 47 194 4.0 9.0 0.00 0.00 0.00 69 1012.4
20260508120024 46 30 1.0 3.0 0.00 0.00 0.00 71 1012.4
20260508115521 46 117 0.0 0.0 0.00 0.00 0.00 72 1012.4
20260508115018 45 194 4.0 10.0 0.00 0.00 0.00 73 1012.4
20260508114515 44 165 1.0 3.0 0.00 0.00 0.00 74 1012.0
20260508114011 44 148 1.0 2.0 0.00 0.00 0.00 74 1012.4
20260508113509 44 152 1.0 2.0 0.00 0.00 0.00 75 1012.4
20260508113006 44 145 0.0 2.0 0.00 0.00 0.00 74 1012.0
20260508112502 44 152 0.0 0.0 0.00 0.00 0.00 74 1012.0
20260508111959 44 192 0.0 0.0 0.00 0.00 0.00 74 1012.4
20260508111456 44 15 3.0 7.0 0.00 0.00 0.00 73 1012.0
20260508110953 44 69 5.0 7.0 0.00 0.00 0.00 73 1012.4
20260508110451 44 172 0.0 0.0 0.00 0.00 0.00 72 1012.0
20260508105950 44 119 0.0 2.0 0.00 0.00 0.00 72 1012.0
20260508105447 44 317 2.0 2.0 0.00 0.00 0.00 71 1012.0
20260508104944 44 10 0.0 0.0 0.00 0.00 0.00 70 1012.0
20260508104442 44 218 2.0 3.0 0.00 0.00 0.00 69 1012.0
20260508103938 44 158 0.0 0.0 0.00 0.00 0.00 68 1012.0
20260508103435 44 89 2.0 2.0 0.00 0.00 0.00 68 1012.0
20260508102932 45 205 1.0 3.0 0.00 0.00 0.00 67 1011.7
20260508102431 45 221 5.0 9.0 0.00 0.00 0.00 66 1011.7
20260508101927 45 245 6.0 7.0 0.00 0.00 0.00 64 1011.7
20260508101425 44 142 0.0 2.0 0.00 0.00 0.00 64 1011.7
20260508100922 44 356 2.0 3.0 0.00 0.00 0.00 64 1011.7
20260508100421 44 177 4.0 5.0 0.00 0.00 0.00 63 1011.4
20260508095916 44 197 3.0 5.0 0.00 0.00 0.00 63 1011.0
20260508095414 44 104 1.0 2.0 0.00 0.00 0.00 62 1011.0
20260508094911 44 198 1.0 2.0 0.00 0.00 0.00 62 1011.4
20260508094408 44 167 1.0 2.0 0.00 0.00 0.00 63 1011.4
20260508093904 43 223 3.0 3.0 0.00 0.00 0.00 64 1011.0
20260508093402 43 156 1.0 2.0 0.00 0.00 0.00 67 1010.7
20260508092859 43 111 0.0 0.0 0.00 0.00 0.00 67 1011.0
20260508092357 43 118 0.0 0.0 0.00 0.00 0.00 68 1011.0
20260508091855 43 118 0.0 0.0 0.00 0.00 0.00 68 1011.4
20260508091351 42 118 0.0 0.0 0.00 0.00 0.00 67 1011.0
20260508090849 42 118 0.0 0.0 0.00 0.00 0.00 67 1011.0
20260508090348 42 118 0.0 0.0 0.00 0.00 0.00 69 1010.7
20260508085843 42 118 0.0 0.0 0.00 0.00 0.00 69 1011.0
20260508085340 42 118 0.0 0.0 0.00 0.00 0.00 69 1010.7
20260508084837 42 118 0.0 0.0 0.00 0.00 0.00 70 1010.7
20260508084333 42 118 0.0 0.0 0.00 0.00 0.00 70 1011.0
20260508083831 42 118 0.0 0.0 0.00 0.00 0.00 70 1011.0
20260508083329 42 118 0.0 0.0 0.00 0.00 0.00 70 1010.7
20260508082828 42 118 0.0 0.0 0.00 0.00 0.00 70 1010.7
20260508082326 42 118 0.0 0.0 0.00 0.00 0.00 69 1010.7
20260508081823 42 118 0.0 0.0 0.00 0.00 0.00 68 1010.7
20260508081320 42 118 0.0 0.0 0.00 0.00 0.00 68 1010.7
20260508080817 42 118 0.0 0.0 0.00 0.00 0.00 67 1010.7
20260508080315 42 118 0.0 0.0 0.00 0.00 0.00 66 1010.7
20260508075811 42 118 0.0 0.0 0.00 0.00 0.00 66 1010.7
20260508075309 42 118 0.0 0.0 0.00 0.00 0.00 65 1010.7
20260508074806 43 118 0.0 0.0 0.00 0.00 0.00 65 1010.7
20260508074303 43 119 0.0 0.0 0.00 0.00 0.00 66 1010.7
20260508073800 43 122 0.0 0.0 0.00 0.00 0.00 64 1010.3
20260508073258 43 119 0.0 0.0 0.00 0.00 0.00 65 1010.3
20260508072754 43 117 0.0 0.0 0.00 0.00 0.00 66 1010.7
20260508072251 43 117 0.0 0.0 0.00 0.00 0.00 65 1010.3
20260508071748 43 117 0.0 0.0 0.00 0.00 0.00 66 1010.3
20260508071246 43 117 0.0 0.0 0.00 0.00 0.00 65 1010.3
20260508070743 43 118 0.0 0.0 0.00 0.00 0.00 64 1010.3
20260508070242 42 125 0.0 0.0 0.00 0.00 0.00 65 1010.3
20260508065739 42 123 0.0 0.0 0.00 0.00 0.00 65 1010.7
20260508065237 42 113 0.0 0.0 0.00 0.00 0.00 64 1010.3
20260508064734 42 130 0.0 0.0 0.00 0.00 0.00 65 1010.7
20260508064232 42 151 1.0 2.0 0.00 0.00 0.00 65 1010.3
20260508063729 42 91 0.0 0.0 0.00 0.00 0.00 66 1010.3
20260508063227 42 153 1.0 2.0 0.00 0.00 0.00 66 1010.3
20260508062724 41 120 0.0 0.0 0.00 0.00 0.00 67 1010.3
20260508062222 41 139 0.0 0.0 0.00 0.00 0.00 69 1010.0
20260508061718 40 126 0.0 0.0 0.00 0.00 0.00 71 1010.0
20260508061215 39 124 0.0 0.0 0.00 0.00 0.00 76 1010.3
20260508060712 39 111 0.0 0.0 0.00 0.00 0.00 78 1010.0
20260508060210 39 108 0.0 0.0 0.00 0.00 0.00 78 1010.0
20260508055705 38 109 0.0 0.0 0.00 0.00 0.00 79 1010.3
20260508055202 38 108 0.0 0.0 0.00 0.00 0.00 79 1010.0
20260508054659 38 108 0.0 0.0 0.00 0.00 0.00 78 1010.0
20260508054156 38 109 0.0 0.0 0.00 0.00 0.00 78 1010.3
20260508053653 38 108 0.0 0.0 0.00 0.00 0.00 78 1010.7
20260508053151 38 109 0.0 0.0 0.00 0.00 0.00 78 1010.3
20260508052648 38 108 0.0 0.0 0.00 0.00 0.00 78 1010.7
20260508052145 39 109 0.0 0.0 0.00 0.00 0.00 78 1010.3
20260508051641 39 108 0.0 0.0 0.00 0.00 0.00 78 1010.3
20260508051137 39 109 0.0 0.0 0.00 0.00 0.00 78 1010.7
20260508050633 39 109 0.0 0.0 0.00 0.00 0.00 78 1010.3
20260508050131 39 109 0.0 0.0 0.00 0.00 0.00 77 1010.3
20260508045626 39 109 0.0 0.0 0.00 0.00 0.00 77 1010.3
20260508045124 40 109 0.0 0.0 0.00 0.00 0.00 77 1010.7
20260508044621 40 109 0.0 0.0 0.00 0.00 0.00 77 1010.3
20260508044117 40 109 0.0 0.0 0.00 0.00 0.00 76 1010.3
20260508043614 40 109 0.0 0.0 0.00 0.00 0.00 76 1010.3
20260508043112 40 109 0.0 0.0 0.00 0.00 0.00 75 1010.3
20260508042608 41 109 0.0 0.0 0.00 0.00 0.00 75 1010.3
20260508042106 41 109 0.0 0.0 0.00 0.00 0.00 75 1010.3
20260508041601 41 110 0.0 0.0 0.00 0.00 0.00 73 1010.3
20260508041058 41 110 0.0 0.0 0.00 0.00 0.00 72 1010.3
20260508040555 41 110 0.0 0.0 0.00 0.00 0.00 72 1010.3
20260508040053 41 110 0.0 0.0 0.00 0.00 0.00 71 1010.0
20260508035549 41 110 0.0 0.0 0.00 0.00 0.00 72 1010.3
20260508035047 41 111 0.0 0.0 0.00 0.00 0.00 71 1010.3
20260508034543 42 110 0.0 0.0 0.00 0.00 0.00 71 1010.0
20260508034041 42 110 0.0 0.0 0.00 0.00 0.00 70 1010.0
20260508033538 42 110 0.0 0.0 0.00 0.00 0.00 69 1010.0
20260508033037 42 111 0.0 0.0 0.00 0.00 0.00 70 1010.0
20260508032532 42 111 0.0 0.0 0.00 0.00 0.00 70 1010.3
20260508032030 42 110 0.0 0.0 0.00 0.00 0.00 70 1010.3
20260508031527 43 111 0.0 0.0 0.00 0.00 0.00 68 1010.3
20260508031022 43 111 0.0 0.0 0.00 0.00 0.00 68 1010.3
20260508030520 43 111 0.0 0.0 0.00 0.00 0.00 68 1010.7
20260508030018 43 111 0.0 0.0 0.00 0.00 0.00 68 1010.3
20260508025513 43 111 0.0 0.0 0.00 0.00 0.00 67 1010.3
20260508025011 44 111 0.0 0.0 0.00 0.00 0.00 65 1010.3
20260508024507 44 111 0.0 0.0 0.00 0.00 0.00 64 1010.7
20260508024004 44 111 0.0 0.0 0.00 0.00 0.00 64 1010.3
20260508023500 45 111 0.0 0.0 0.00 0.00 0.00 63 1010.7
20260508022958 45 111 0.0 0.0 0.00 0.00 0.00 62 1010.3
20260508022453 45 111 0.0 0.0 0.00 0.00 0.00 61 1010.3
20260508021950 45 111 0.0 0.0 0.00 0.00 0.00 62 1010.7
20260508021446 45 111 0.0 0.0 0.00 0.00 0.00 63 1010.3
20260508020942 45 111 0.0 0.0 0.00 0.00 0.00 62 1010.3
20260508020440 45 112 0.0 0.0 0.00 0.00 0.00 62 1010.7
20260508015937 45 111 0.0 0.0 0.00 0.00 0.00 62 1010.3
20260508015435 46 111 0.0 0.0 0.00 0.00 0.00 62 1010.7
20260508014931 46 112 0.0 0.0 0.00 0.00 0.00 60 1010.3
20260508014428 46 112 0.0 0.0 0.00 0.00 0.00 60 1010.7
20260508013924 46 112 0.0 0.0 0.00 0.00 0.00 58 1010.3
20260508013420 47 112 0.0 0.0 0.00 0.00 0.00 59 1010.3
20260508012918 47 141 0.0 0.0 0.00 0.00 0.00 58 1010.3
20260508012414 47 141 0.0 0.0 0.00 0.00 0.00 60 1010.3
20260508011912 47 141 0.0 0.0 0.00 0.00 0.00 58 1010.3
20260508011410 48 141 0.0 0.0 0.00 0.00 0.00 57 1010.0
20260508010907 48 142 0.0 0.0 0.00 0.00 0.00 58 1010.3
20260508010404 48 142 0.0 0.0 0.00 0.00 0.00 56 1010.0
20260508005901 49 142 0.0 0.0 0.00 0.00 0.00 53 1009.7
20260508005358 49 142 0.0 0.0 0.00 0.00 0.00 54 1009.7
20260508004854 49 142 0.0 0.0 0.00 0.00 0.00 51 1009.7
20260508004350 50 142 0.0 0.0 0.00 0.00 0.00 52 1009.7
20260508003847 50 142 0.0 0.0 0.00 0.00 0.00 49 1009.7
20260508003344 51 142 0.0 0.0 0.00 0.00 0.00 48 1009.7
20260508002841 51 142 0.0 0.0 0.00 0.00 0.00 47 1009.7
20260508002338 52 142 0.0 0.0 0.00 0.00 0.00 46 1009.3
20260508001834 52 142 0.0 0.0 0.00 0.00 0.00 45 1009.3
20260508001330 52 142 0.0 0.0 0.00 0.00 0.00 44 1009.3
20260508000827 53 142 0.0 0.0 0.00 0.00 0.00 44 1009.3
20260508000323 53 143 2.0 2.0 0.00 0.00 0.00 43 1009.0
20260507235820 53 142 0.0 0.0 0.00 0.00 0.00 43 1009.0
20260507235317 53 53 1.0 2.0 0.00 0.00 0.00 43 1009.0
20260507234814 54 85 0.0 0.0 0.00 0.00 0.00 42 1009.0
20260507234311 54 110 0.0 0.0 0.00 0.00 0.00 42 1009.0
20260507233807 54 222 0.0 0.0 0.00 0.00 0.00 41 1009.0
20260507233305 54 4 5.0 7.0 0.00 0.00 0.00 40 1009.0
20260507232803 55 203 3.0 3.0 0.00 0.00 0.00 40 1009.0
20260507232259 55 148 2.0 2.0 0.00 0.00 0.00 41 1009.0
20260507231756 56 141 1.0 3.0 0.00 0.00 0.00 40 1008.6
20260507231253 56 113 0.0 0.0 0.00 0.00 0.00 41 1008.6
20260507230749 56 147 0.0 2.0 0.00 0.00 0.00 40 1009.0
20260507230247 56 353 0.0 2.0 0.00 0.00 0.00 38 1009.0
20260507225746 56 234 7.0 10.0 0.00 0.00 0.00 36 1008.6
20260507225243 56 154 3.0 3.0 0.00 0.00 0.00 36 1008.6
20260507224738 57 190 4.0 5.0 0.00 0.00 0.00 36 1009.0
20260507224235 57 144 1.0 2.0 0.00 0.00 0.00 34 1009.0
20260507223732 58 85 1.0 2.0 0.00 0.00 0.00 36 1008.6
20260507223228 58 164 3.0 3.0 0.00 0.00 0.00 35 1009.0
20260507222725 58 232 6.0 9.0 0.00 0.00 0.00 34 1008.6
20260507222222 58 57 6.0 9.0 0.00 0.00 0.00 35 1009.0
20260507221718 58 227 5.0 7.0 0.00 0.00 0.00 34 1008.6
20260507221215 58 32 4.0 5.0 0.00 0.00 0.00 34 1009.0
20260507220711 58 86 3.0 3.0 0.00 0.00 0.00 36 1009.0
20260507220210 58 26 3.0 3.0 0.00 0.00 0.00 35 1009.0
20260507215705 58 141 1.0 2.0 0.00 0.00 0.00 35 1009.0
20260507215203 58 94 4.0 7.0 0.00 0.00 0.00 35 1009.0
20260507214700 58 200 6.0 12.0 0.00 0.00 0.00 35 1009.0
20260507214156 59 14 7.0 14.0 0.00 0.00 0.00 34 1009.0
20260507213652 59 188 2.0 3.0 0.00 0.00 0.00 35 1009.0
20260507213150 59 64 0.0 2.0 0.00 0.00 0.00 35 1009.0
20260507212646 58 225 7.0 9.0 0.00 0.00 0.00 35 1009.0
20260507212143 58 121 1.0 5.0 0.00 0.00 0.00 38 1008.6
20260507211640 58 117 2.0 3.0 0.00 0.00 0.00 38 1009.0
20260507211135 58 41 6.0 9.0 0.00 0.00 0.00 36 1009.0
20260507210633 59 108 3.0 3.0 0.00 0.00 0.00 38 1009.0
20260507210129 59 112 0.0 0.0 0.00 0.00 0.00 38 1008.6
20260507205626 59 72 2.0 3.0 0.00 0.00 0.00 37 1008.6
20260507205123 60 45 12.0 19.0 0.00 0.00 0.00 35 1008.6
20260507204619 59 258 3.0 5.0 0.00 0.00 0.00 37 1008.6
20260507204117 58 232 7.0 9.0 0.00 0.00 0.00 37 1009.0
20260507203614 58 45 5.0 7.0 0.00 0.00 0.00 38 1009.0
20260507203112 57 147 2.0 2.0 0.00 0.00 0.00 39 1009.0
20260507202607 58 65 2.0 2.0 0.00 0.00 0.00 40 1008.6
20260507202104 59 241 7.0 12.0 0.00 0.00 0.00 38 1009.0
20260507201559 58 293 6.0 10.0 0.00 0.00 0.00 40 1008.6
20260507201056 58 29 5.0 9.0 0.00 0.00 0.00 38 1009.0
20260507200551 59 137 2.0 3.0 0.00 0.00 0.00 38 1009.0
20260507200048 58 168 1.0 2.0 0.00 0.00 0.00 38 1009.0
20260507195545 57 238 7.0 10.0 0.00 0.00 0.00 39 1009.0
20260507195042 57 218 10.0 14.0 0.00 0.00 0.00 39 1009.3
20260507194538 58 237 6.0 9.0 0.00 0.00 0.00 39 1009.0
20260507194035 57 108 1.0 2.0 0.00 0.00 0.00 39 1009.3
20260507193532 57 207 7.0 10.0 0.00 0.00 0.00 41 1009.3
20260507193029 57 289 3.0 3.0 0.00 0.00 0.00 41 1009.3
20260507192525 58 206 7.0 9.0 0.00 0.00 0.00 42 1009.3
20260507192022 59 158 4.0 5.0 0.00 0.00 0.00 43 1009.0
20260507191517 59 115 8.0 12.0 0.00 0.00 0.00 42 1009.3
20260507191014 58 338 4.0 5.0 0.00 0.00 0.00 42 1009.3
20260507190512 57 185 4.0 7.0 0.00 0.00 0.00 44 1009.7
20260507190011 57 59 1.0 2.0 0.00 0.00 0.00 44 1010.0
20260507185508 57 147 7.0 10.0 0.00 0.00 0.00 42 1009.7
20260507185004 57 20 7.0 12.0 0.00 0.00 0.00 46 1010.0
20260507184503 59 264 4.0 7.0 0.00 0.00 0.00 44 1009.7
20260507184001 58 192 3.0 3.0 0.00 0.00 0.00 43 1010.0
20260507183456 58 277 2.0 3.0 0.00 0.00 0.00 45 1010.0
20260507182954 59 217 8.0 12.0 0.00 0.00 0.00 43 1010.0
20260507182449 59 117 2.0 3.0 0.00 0.00 0.00 42 1010.0
20260507181945 58 197 2.0 3.0 0.00 0.00 0.00 43 1010.0
20260507181442 57 118 4.0 7.0 0.00 0.00 0.00 44 1010.0
20260507180939 56 229 7.0 14.0 0.00 0.00 0.00 46 1010.0
20260507180436 56 200 7.0 10.0 0.00 0.00 0.00 45 1010.0
20260507175932 56 157 4.0 5.0 0.00 0.00 0.00 44 1010.0
20260507175428 56 199 6.0 9.0 0.00 0.00 0.00 45 1010.3
20260507174926 55 94 1.0 2.0 0.00 0.00 0.00 47 1010.3
20260507174423 55 167 3.0 5.0 0.00 0.00 0.00 44 1010.3
20260507173921 56 210 6.0 9.0 0.00 0.00 0.00 44 1010.0
20260507173418 56 57 3.0 5.0 0.00 0.00 0.00 45 1010.3
20260507172914 56 162 1.0 2.0 0.00 0.00 0.00 47 1010.3
20260507172411 56 341 3.0 3.0 0.00 0.00 0.00 45 1010.3
20260507171907 57 214 5.0 9.0 0.00 0.00 0.00 44 1010.0
20260507171403 57 356 2.0 3.0 0.00 0.00 0.00 43 1010.3
20260507170901 56 27 3.0 7.0 0.00 0.00 0.00 49 1010.3
20260507170357 54 14 2.0 3.0 0.00 0.00 0.00 46 1010.3
20260507165853 55 357 9.0 14.0 0.00 0.00 0.00 45 1010.7
20260507165349 56 322 3.0 5.0 0.00 0.00 0.00 44 1010.3
20260507164845 56 33 3.0 5.0 0.00 0.00 0.00 46 1010.7
20260507164343 56 65 3.0 5.0 0.00 0.00 0.00 43 1010.3
20260507163840 56 88 4.0 7.0 0.00 0.00 0.00 44 1010.7
20260507163337 57 290 11.0 14.0 0.00 0.00 0.00 43 1010.7
20260507162833 57 19 1.0 3.0 0.00 0.00 0.00 45 1010.7
20260507162329 57 13 2.0 3.0 0.00 0.00 0.00 44 1010.7
20260507161826 56 29 2.0 2.0 0.00 0.00 0.00 49 1010.7
20260507161323 55 188 1.0 3.0 0.00 0.00 0.00 45 1011.0
20260507160819 56 206 5.0 7.0 0.00 0.00 0.00 45 1010.7
20260507160315 56 110 2.0 3.0 0.00 0.00 0.00 49 1011.0
20260507155811 56 229 1.0 2.0 0.00 0.00 0.00 47 1011.4
20260507155308 55 318 2.0 2.0 0.00 0.00 0.00 47 1011.0
20260507154804 55 40 1.0 3.0 0.00 0.00 0.00 50 1011.0
20260507154302 55 224 5.0 9.0 0.00 0.00 0.00 48 1011.4
20260507153758 55 24 3.0 5.0 0.00 0.00 0.00 48 1011.4
20260507153254 55 51 2.0 3.0 0.00 0.00 0.00 48 1011.4
20260507152751 55 258 5.0 7.0 0.00 0.00 0.00 47 1011.7
20260507152248 54 74 0.0 0.0 0.00 0.00 0.00 51 1011.7
20260507151743 53 164 3.0 3.0 0.00 0.00 0.00 48 1011.4
20260507151240 54 284 8.0 12.0 0.00 0.00 0.00 46 1011.7
20260507150737 54 181 3.0 3.0 0.00 0.00 0.00 50 1011.4
20260507150234 54 254 4.0 7.0 0.00 0.00 0.00 49 1011.7
20260507145730 53 28 3.0 5.0 0.00 0.00 0.00 50 1011.7
20260507145226 53 21 3.0 7.0 0.00 0.00 0.00 50 1011.7
20260507144724 52 260 4.0 5.0 0.00 0.00 0.00 50 1012.0
20260507144221 53 265 2.0 3.0 0.00 0.00 0.00 49 1011.7
20260507143718 52 349 1.0 2.0 0.00 0.00 0.00 49 1011.7
20260507143215 52 238 5.0 7.0 0.00 0.00 0.00 48 1011.7
20260507142711 52 190 5.0 7.0 0.00 0.00 0.00 48 1011.7